{"data":{"norad_id":57328,"intl_designator":"2023-099A","name":"STARLINK-6290","alt_names":[],"object_type":"PAYLOAD","status":"ACTIVE","operator":null,"country":"US","launch_date":"2023-07-16","launch_site_code":"AFETR","launch_vehicle":null,"mission":null,"orbit_class":"UNKNOWN","rcs_meters":null,"size_class":null,"mass_kg":null,"dimensions":null,"purposes":["comms"],"wikipedia_slug":null,"has_3d_model":false,"image_url":null,"decayed_at":null,"tle_current":{"epoch":"2026-05-25T03:35:11.202144Z","epoch_age_seconds":58312,"freshness":"FRESH","line1":"1 57328U 23099A   26145.14943521 -.00003530  00000+0 -11890-3 0  9999","line2":"2 57328  43.0035 180.2842 0001942 291.5060  68.5585 15.27547716158686","mean_motion":15.27547716,"eccentricity":0.0001942,"inclination_deg":43.0035,"raan_deg":180.2842,"arg_perigee_deg":291.506,"mean_anomaly_deg":68.5585,"bstar":-0.0001189,"rev_number":15868,"period_min":94.268740996893,"perigee_km":481.81330653884,"apogee_km":484.4782287658,"semimajor_km":6861.2827676523,"source":"CELESTRAK","updated_at":"2026-05-25T13:38:18.285013Z"}}}